This demonstration page uses our WeatherBlox Daily Observations layout. Learn more.

Left ArrowRight Arrow

31.84235, -102.49876

Hourly Observations for May 31, 2022

Temp ( °F °C ) Dew Point ( °F °C ) Humidity (%) Winds ( mph kmh ) Pressure ( in mb ) Visibility ( mi km ) Precip ( " mm )
12:53 am 00:53 Clear 83 28.3 63 17.2 51 51 S 16 26 29.59 1002 10 16 0.00 0.00
1:53 am 01:53 Clear 83 28.3 63 17.2 51 51 S 20 31 29.58 1002 10 16 0.00 0.00
2:53 am 02:53 Clear 81 27.2 63 17.2 54 54 S 20 31 29.58 1002 10 16 0.00 0.00
3:53 am 03:53 Clear 80 26.7 63 17.2 56 56 S 14 22 29.60 1002 10 16 0.00 0.00
4:53 am 04:53 Clear 78 25.6 64 17.8 62 62 S 16 26 29.61 1003 10 16 0.00 0.00
5:49 am 05:49 Mostly Cloudy 77 25 66 19 69 69 S 17 28 29.64 1004 10 16 0.00 0.00
5:53 am 05:53 Mostly Cloudy 77 25 67 19.4 71 71 S 17 28 29.64 1004 10 16 0.00 0.00
6:53 am 06:53 Cloudy 76 24.4 67 19.4 74 74 S 18 30 29.65 1004 10 16 0.00 0.00
7:53 am 07:53 Cloudy 77 25 67 19.4 71 71 S 21 33 29.67 1005 9 14 0.00 0.00
8:53 am 08:53 Cloudy 78 25.6 67 19.4 69 69 S 17 28 29.69 1005 10 16 0.00 0.00
9:53 am 09:53 Mostly Cloudy 79 26.1 67 19.4 67 67 S 20 31 29.70 1006 10 16 0.00 0.00
10:33 am 10:33 Partly Cloudy 82 27.8 66 18.9 58 58 S 18 30 29.66 1004 10 16 0.00 0.00
10:53 am 10:53 Sunny 83 28.3 66 18.9 57 57 S 18 30 29.70 1006 10 16 0.00 0.00
11:53 am 11:53 Sunny 86 30 66 18.9 51 51 SSW 18 30 29.70 1006 10 16 0.00 0.00
12:53 pm 12:53 Sunny 88 31.1 64 17.8 45 45 S 15 24 29.69 1005 10 16 0.00 0.00
1:53 pm 13:53 Sunny 92 33.3 62 16.7 37 37 SSW 14 22 29.67 1005 10 16 0.00 0.00
2:53 pm 14:53 Sunny 95 35 60 15.6 31 31 S 13 20 29.66 1004 10 16 0.00 0.00
3:53 pm 15:53 Sunny 96 35.6 58 14.4 28 28 SW 12 19 29.64 1004 10 16 0.00 0.00
4:53 pm 16:53 Sunny 98 36.7 60 15.6 28 28 SSW 15 24 29.62 1003 10 16 0.00 0.00
5:53 pm 17:53 Mostly Sunny 96 35.6 64 17.8 35 35 SSE 15 24 29.62 1003 10 16 0.00 0.00
6:53 pm 18:53 Sunny 94 34.4 64 17.8 37 37 S 22 35 29.62 1003 10 16 0.00 0.00
7:53 pm 19:53 Sunny 90 32.2 65 18.3 44 44 SSE 23 37 29.65 1004 10 16 0.00 0.00
8:53 pm 20:53 Clear 87 30.6 64 17.8 46 46 S 24 39 29.66 1005 9 14 0.00 0.00
9:53 pm 21:53 Clear 85 29.4 65 18.3 51 51 S 21 33 29.68 1005 10 16 0.00 0.00
10:53 pm 22:53 Clear 84 28.9 64 17.8 51 51 S 16 26 29.69 1005 10 16 0.00 0.00
11:53 pm 23:53 Clear 82 27.8 62 16.7 51 51 S 13 20 29.68 1005 10 16 0.00 0.00

Powered by AerisWeather